Temperature
23 21 21 21 21 22 22 22 21 21 21 20 19 18 18 17 17 17 17 17 17 17 17 17 17 17 17 17 17 17 17 17 17 17 17 16 16 16 15 15 14 14 14 14
21 21 23 23 23 22 22 21 21 21 21 20 19 19 18 17 17 17 17 17 17 17 17 17 17 17 17 17 17 17 17 17 17 17 17 16 16 15 15 15 14 14 14 13
23 23 24 24 24 23 22 21 21 21 20 19 19 19 18 18 17 17 17 17 17 17 17 17 17 17 17 17 17 17 17 17 17 17 17 16 16 15 15 15 14 14 14 13
22 23 24 24 24 23 22 22 22 21 19 18 18 18 18 18 17 17 17 17 17 17 17 17 17 17 17 17 17 17 17 17 17 17 17 16 16 16 15 15 14 14 14 13
23 24 24 24 24 24 22 20 20 19 18 17 17 17 17 17 18 17 17 17 17 18 18 18 18 18 17 17 17 17 17 17 17 17 17 16 16 15 15 15 14 14 14 13
23 24 24 24 23 23 21 19 18 16 16 18 18 17 18 17 18 18 18 18 18 18 18 18 18 18 18 18 18 17 17 18 17 17 17 16 16 16 15 15 15 14 14 14
23 23 23 23 22 22 21 19 18 19 17 18 18 17 17 18 18 18 18 19 19 19 18 18 18 18 18 18 18 18 18 18 18 17 17 16 16 16 16 15 15 14 14 14
22 22 23 23 23 21 20 20 19 20 19 18 18 17 18 19 20 20 20 20 20 19 19 19 19 19 19 19 19 18 18 18 18 18 17 17 16 16 16 15 15 15 14 14
21 22 24 23 23 22 20 19 18 17 18 18 18 18 19 19 19 19 19 19 20 20 20 20 20 20 20 19 19 19 19 19 18 18 18 17 17 16 16 15 15 15 15 14
21 22 23 23 23 22 21 18 16 17 18 19 19 19 18 20 20 19 18 19 21 21 21 21 20 20 20 20 20 20 19 19 19 18 18 17 17 17 16 16 15 15 15 15
21 21 22 22 23 22 21 19 16 15 16 17 19 19 19 19 19 19 19 21 22 22 22 22 21 21 21 21 20 20 20 19 19 19 18 18 17 17 17 16 16 16 16 15
20 19 20 21 21 21 21 20 17 18 18 16 17 18 19 18 19 19 20 21 22 23 23 23 22 22 21 21 21 21 20 20 20 19 19 18 18 17 17 17 17 17 16 16
19 19 20 21 20 21 21 20 17 16 15 15 17 19 19 18 19 20 20 21 23 23 23 23 23 22 22 22 22 21 21 21 20 20 19 19 18 18 18 18 18 17 17 17
19 18 19 21 20 20 21 20 17 17 16 16 16 18 19 18 18 18 20 21 22 23 23 23 23 23 23 23 22 22 21 21 21 20 20 19 19 19 19 18 18 18 17 17
19 19 20 20 20 20 21 21 19 18 17 18 18 18 18 18 17 18 19 21 21 22 23 23 23 23 23 23 23 22 22 21 21 20 20 20 20 19 19 19 19 18 18 18
18 19 20 21 21 21 21 20 20 20 19 18 18 18 18 17 17 17 18 19 20 21 22 23 23 23 23 23 23 23 22 22 21 21 20 20 20 19 19 19 19 18 18 18
16 18 19 19 20 21 20 20 19 19 18 18 18 18 16 15 15 15 16 18 19 20 21 22 22 22 23 23 23 22 22 21 21 21 20 20 20 19 19 19 19 18 18 18
16 16 16 17 19 20 19 18 19 18 17 16 16 16 15 15 14 14 16 17 18 19 20 21 21 22 22 22 22 22 21 21 20 20 20 19 19 19 19 19 18 18 18 18
15 15 15 16 18 18 19 18 17 17 17 16 15 15 15 16 16 15 15 16 17 18 19 20 20 20 21 21 21 20 20 19 19 19 19 18 18 18 18 18 18 18 17 17
14 14 15 15 18 18 19 18 18 18 17 17 15 15 16 16 15 14 14 16 17 17 18 18 19 19 19 19 19 19 18 18 17 17 17 17 17 17 17 17 17 16 16 16
16 15 15 15 16 17 18 17 18 17 17 17 16 16 16 14 14 14 15 15 16 16 17 17 18 17 17 17 17 17 16 16 15 15 15 16 16 16 16 15 15 15 15 15
16 15 15 14 16 17 17 17 16 16 17 17 16 16 16 15 15 15 15 15 15 15 16 16 16 16 15 15 16 16 15 14 14 14 14 14 14 14 14 14 14 13 13 13
14 15 14 14 15 16 16 17 17 17 17 17 17 16 16 15 14 14 14 15 15 15 15 15 15 15 14 14 14 14 13 13 13 13 13 12 12 12 12 12 12 12 12 12
15 13 13 14 14 15 16 17 17 17 17 17 17 16 16 15 15 14 14 14 14 14 14 14 14 13 13 13 12 12 12 11 11 11 11 11 11 11 11 11 11 11 11 10
16 13 13 14 14 15 16 16 17 17 17 17 16 16 16 15 15 14 14 14 14 13 13 13 13 12 12 12 11 11 11 11 11 10 10 10 10 10 10 10 10 9 9 9
13 13 14 15 15 14 15 16 16 17 17 16 16 15 15 15 14 14 14 13 13 13 12 12 12 11 11 11 10 10 10 10 10 10 10 9 9 9 9 9 9 9 9 9
Wind_Speed
2 3 5 8 9 7 5 4 5 4 1 2 2 4 3 3 4 5 5 5 5 5 5 5 6 8 8 6 6 7 8 7 7 5 4 4 3 2 1 1 2 3 4 5
3 5 9 5 4 5 4 3 4 2 2 1 1 3 3 3 5 6 7 7 8 7 7 7 8 8 9 9 8 7 8 8 7 5 4 3 3 2 2 1 1 2 3 4
7 8 4 3 2 2 2 4 4 2 2 4 3 4 2 1 1 3 4 5 6 10 11 10 10 9 10 10 11 10 9 8 7 6 5 4 4 3 2 1 1 2 3 3
7 7 3 3 4 3 4 3 3 3 3 3 3 3 5 2 2 4 6 6 7 8 9 9 10 10 11 12 10 8 8 7 6 7 6 6 5 4 5 3 3 2 3 3
7 3 2 4 5 3 3 4 5 4 4 2 3 0 7 1 4 6 7 8 8 8 9 10 11 11 11 10 9 8 7 7 6 7 7 6 4 4 3 2 3 2 2 3
8 3 4 4 1 3 6 6 7 6 5 2 2 1 6 4 6 5 6 8 9 9 9 9 9 8 8 8 8 8 8 7 7 7 7 7 7 6 5 4 4 3 2 2
5 4 2 2 3 3 5 6 5 6 5 5 2 2 8 7 6 7 8 9 9 10 10 10 10 9 9 9 9 9 9 8 8 8 8 8 8 8 8 6 6 4 3 3
4 6 4 4 5 6 4 7 6 4 4 5 2 4 7 6 5 5 6 8 8 9 10 12 12 11 11 11 10 10 10 10 9 9 9 8 8 6 6 6 6 6 5 5
8 6 2 2 3 8 6 3 5 6 2 2 5 7 8 2 2 4 6 8 10 11 12 12 12 12 12 11 12 12 12 11 10 10 9 8 8 8 7 7 6 5 5 4
8 4 3 1 4 3 5 8 6 5 3 3 6 5 5 5 5 5 7 10 11 11 11 11 12 12 12 12 11 10 11 12 11 10 10 9 9 9 8 7 7 7 6 5
5 4 3 2 2 4 4 5 5 5 4 5 3 7 6 8 8 9 10 10 11 12 13 12 12 11 11 10 9 10 10 10 10 11 10 9 9 9 8 8 8 8 7 7
4 5 1 4 2 2 4 6 7 4 4 4 4 8 6 6 6 7 9 9 9 11 11 11 11 10 10 10 10 11 11 11 11 11 10 11 9 9 9 10 10 8 8 8
7 6 2 5 5 2 1 4 5 5 5 5 4 7 3 3 3 5 7 8 8 9 10 9 9 10 11 11 11 11 12 12 11 10 10 10 10 10 11 11 10 9 9 9
6 5 6 8 7 5 3 3 6 6 4 5 8 9 8 7 6 6 5 6 7 8 9 9 10 10 11 11 11 11 12 11 10 10 11 12 12 13 12 11 10 10 10 10
5 4 5 6 4 3 5 5 6 8 8 9 8 8 8 7 6 6 4 2 2 4 5 8 9 9 8 8 9 9 10 9 10 10 12 13 12 11 10 10 11 10 10 11
4 5 3 2 2 3 4 5 5 6 5 7 6 7 4 4 2 3 3 2 1 1 2 3 4 5 7 8 9 9 9 8 9 10 12 10 8 9 10 11 10 10 11 10
4 6 4 3 2 2 5 6 6 4 4 6 7 5 1 3 6 6 6 6 5 4 3 2 1 2 3 4 5 6 6 5 6 8 7 7 7 9 10 9 9 11 11 10
7 6 4 1 1 6 7 2 4 4 2 3 3 1 3 5 5 7 8 7 8 8 7 6 5 4 3 2 1 2 3 4 4 4 5 5 5 7 6 7 10 10 9 9
4 7 5 4 2 6 5 2 4 4 3 3 4 4 4 5 5 9 10 9 9 8 7 7 8 7 8 7 5 6 6 5 3 1 2 2 3 5 5 8 10 8 7 9
6 5 5 4 3 6 7 2 3 3 4 4 5 4 2 2 4 3 5 8 10 10 9 10 10 11 13 10 8 10 9 8 6 5 4 3 2 3 5 6 7 6 6 9
3 4 4 4 5 8 5 1 4 4 7 3 5 4 4 4 5 4 4 8 9 9 10 11 13 13 11 9 11 12 11 10 7 6 6 6 5 3 3 4 3 4 5 6
6 5 4 5 3 7 3 5 6 6 1 4 5 5 8 10 10 8 7 8 9 9 10 11 11 11 9 8 11 12 9 6 6 7 8 8 7 6 6 5 5 4 4 6
6 7 6 8 7 5 3 5 3 3 4 4 5 6 10 10 9 8 7 7 7 8 8 7 9 9 8 8 8 9 6 5 6 8 8 7 7 7 6 5 6 5 4 5
4 3 4 4 7 5 4 3 2 3 4 5 7 10 11 11 10 9 7 6 6 6 6 5 7 8 7 6 7 5 4 5 6 6 6 6 6 7 7 5 5 5 5 6
5 6 4 5 6 4 3 4 4 5 7 9 10 10 11 13 10 8 7 6 5 5 4 4 5 5 4 4 5 4 4 4 5 5 5 5 5 5 6 6 5 5 5 6
3 7 7 7 7 5 3 3 6 8 9 11 13 10 9 10 10 8 7 5 4 4 3 3 3 2 1 2 3 4 4 3 3 4 5 4 5 5 5 6 8 8 9 12
Wind_Direction
42 38 267 245 213 220 238 249 267 270 234 145 219 261 263 200 189 194 197 197 199 182 154 143 146 148 146 144 152 157 152 150 142 135 132 129 136 138 137 156 151 137 124 114
5 279 252 255 215 208 214 241 260 298 41 95 286 286 278 207 209 204 202 205 197 177 166 162 160 160 164 166 174 175 174 168 165 150 140 137 133 141 154 142 159 179 158 142
227 253 286 305 290 213 229 210 231 211 52 42 13 333 299 267 250 214 212 205 194 187 181 178 175 174 173 181 187 187 187 177 168 143 118 99 83 74 86 154 215 219 194 172
238 262 273 291 282 205 261 260 170 122 88 341 33 309 292 261 263 229 217 200 195 191 181 179 180 181 183 189 187 186 184 178 169 156 154 152 159 174 199 194 201 216 205 191
250 247 266 264 253 184 181 66 85 83 96 23 16 283 292 308 257 243 223 209 197 191 185 186 185 186 187 184 184 184 181 183 175 170 170 163 166 177 169 167 192 212 230 216
251 246 224 231 6 110 120 73 57 53 64 353 296 182 285 243 226 228 214 207 198 190 189 191 185 181 186 185 183 180 183 193 183 176 175 178 177 172 168 183 196 211 223 233
296 284 230 158 98 63 89 84 25 357 4 273 279 243 255 253 230 206 200 203 199 187 186 189 190 192 195 193 191 187 189 200 191 184 188 191 187 180 187 191 196 197 204 216
232 284 237 190 171 166 162 140 156 210 246 289 321 256 259 260 239 212 192 189 189 187 191 196 198 199 202 202 198 193 197 204 194 193 199 196 189 187 196 196 192 198 206 214
191 243 271 208 174 140 136 163 157 134 146 297 292 288 303 265 202 188 184 183 194 198 198 202 202 202 205 205 204 200 201 205 200 200 197 196 195 195 200 200 197 203 211 218
168 217 290 323 87 66 132 141 103 118 150 268 299 290 262 256 219 195 194 202 206 202 203 206 206 207 209 209 206 200 202 206 203 198 199 204 201 202 201 193 201 207 212 213
148 164 308 24 155 170 121 106 107 115 152 163 261 277 234 225 213 205 211 210 207 203 205 207 209 209 207 206 201 201 204 204 201 201 201 201 202 201 197 202 209 208 209 209
142 126 227 272 275 179 168 165 148 154 211 175 188 267 275 237 228 216 221 219 212 210 209 207 204 201 201 204 204 204 204 205 207 202 198 203 202 196 201 211 214 208 211 213
139 117 76 348 344 348 157 153 142 126 121 155 180 262 298 336 275 241 232 230 219 213 211 206 201 201 205 206 205 206 206 209 205 195 197 202 203 203 210 215 215 210 213 217
120 124 165 199 221 208 216 185 149 137 158 198 221 252 297 316 300 283 259 240 226 218 210 207 209 211 209 206 204 205 209 205 197 193 198 206 211 211 214 215 213 213 213 216
119 166 206 230 233 188 215 221 184 188 197 199 231 231 262 282 282 283 278 251 208 219 215 211 212 215 212 210 209 208 210 200 193 193 205 215 216 213 214 215 215 215 215 220
109 155 162 270 242 211 240 242 217 210 211 224 244 256 262 298 319 359 4 48 73 264 252 237 224 215 211 211 211 208 209 200 189 201 216 222 216 217 221 222 219 218 220 221
122 134 137 249 311 23 264 240 204 202 204 196 217 236 318 37 37 23 21 43 40 21 25 24 298 254 244 231 212 210 212 183 185 209 222 220 215 223 228 228 225 226 226 222
131 122 132 156 71 236 248 289 177 163 215 227 230 220 135 114 92 50 34 49 47 34 33 32 30 27 11 16 81 120 111 135 174 214 237 238 230 235 235 227 231 233 228 226
120 131 125 131 205 273 285 215 158 165 243 207 186 177 165 160 84 42 29 43 52 48 43 45 43 46 46 44 56 81 77 78 76 359 307 285 244 240 239 238 241 237 230 234
62 89 116 129 175 243 254 200 149 115 276 210 179 176 184 123 86 34 16 43 48 48 51 52 51 52 51 44 60 70 63 56 38 16 1 346 296 257 253 254 255 247 238 247
71 64 119 160 215 260 255 147 118 173 243 189 170 156 119 109 130 127 65 56 55 52 56 59 59 55 46 44 65 66 58 46 29 30 32 23 8 334 309 304 288 275 263 263
164 155 174 151 198 259 210 139 179 215 193 134 136 126 113 113 109 100 82 68 63 61 59 64 68 59 42 43 65 65 52 30 29 36 34 22 12 8 6 351 332 316 298 286
190 187 184 189 214 242 220 210 216 161 140 141 141 132 125 117 111 101 90 82 72 70 66 65 77 68 47 39 58 64 33 20 36 39 30 16 11 5 358 355 346 337 328 312
233 152 159 243 263 248 239 231 204 156 137 135 134 128 125 120 114 107 100 91 82 76 77 75 78 72 51 35 46 51 26 28 45 38 19 8 6 358 354 351 343 334 325 316
213 164 188 251 272 281 248 203 165 125 115 115 115 117 124 121 117 115 109 99 95 89 80 80 85 80 53 27 28 19 17 31 37 23 6 357 353 345 339 334 319 311 292 288
200 182 184 229 231 195 216 150 138 125 123 122 116 103 105 114 117 114 110 111 109 104 97 94 92 89 36 8 2 353 356 15 21 2 347 338 332 330 329 328 324 310 299 301
Height
1507 1511 1513 1509 1507 1506 1507 1511 1513 1508 1503 1506 1508 1508 1504 1504 1505 1506 1507 1507 1509 1511 1513 1516 1519 1522 1526 1529 1533 1537 1540 1542 1545 1548 1550 1551 1552 1553 1553 1553 1553 1553 1552 1551
1511 1512 1502 1499 1500 1503 1506 1511 1511 1506 1503 1505 1508 1508 1504 1503 1503 1504 1505 1506 1507 1510 1513 1516 1518 1522 1525 1529 1533 1537 1539 1542 1545 1547 1549 1551 1552 1553 1553 1553 1553 1553 1553 1552
1511 1503 1497 1498 1499 1503 1505 1508 1507 1508 1506 1507 1509 1511 1507 1504 1503 1504 1505 1505 1506 1508 1511 1514 1517 1521 1525 1528 1532 1536 1539 1542 1545 1547 1549 1550 1551 1552 1553 1553 1553 1553 1553 1552
1506 1498 1497 1497 1499 1499 1507 1500 1501 1506 1514 1521 1517 1527 1511 1505 1504 1503 1503 1504 1505 1507 1510 1513 1516 1520 1523 1527 1532 1536 1539 1542 1544 1546 1548 1549 1550 1551 1552 1552 1552 1553 1552 1552
1502 1497 1497 1499 1496 1495 1500 1500 1504 1509 1516 1523 1521 1527 1518 1507 1506 1502 1501 1502 1504 1506 1509 1511 1514 1518 1522 1527 1531 1535 1538 1541 1544 1545 1547 1548 1549 1550 1551 1551 1551 1551 1552 1552
1496 1493 1493 1493 1492 1493 1498 1504 1511 1519 1525 1532 1523 1527 1522 1509 1502 1498 1498 1500 1502 1505 1508 1511 1514 1518 1522 1526 1530 1533 1537 1539 1542 1544 1546 1547 1548 1549 1549 1549 1550 1550 1550 1551
1499 1493 1490 1490 1495 1497 1500 1515 1532 1533 1540 1535 1523 1525 1519 1498 1494 1494 1495 1497 1500 1504 1507 1510 1513 1517 1520 1524 1528 1532 1535 1537 1540 1542 1544 1545 1546 1547 1547 1548 1548 1548 1549 1550
1507 1506 1491 1489 1492 1499 1502 1511 1530 1539 1541 1534 1524 1524 1507 1492 1490 1491 1493 1496 1499 1502 1505 1508 1512 1515 1519 1523 1526 1529 1532 1535 1538 1540 1542 1543 1544 1545 1545 1546 1546 1547 1547 1548
1506 1503 1487 1485 1485 1491 1503 1510 1511 1527 1531 1536 1528 1516 1500 1490 1490 1490 1492 1495 1497 1500 1503 1507 1510 1514 1517 1521 1524 1527 1530 1533 1535 1538 1540 1541 1542 1543 1543 1544 1544 1545 1546 1546
1492 1500 1490 1486 1486 1490 1494 1504 1518 1527 1536 1538 1527 1519 1512 1495 1491 1490 1491 1492 1494 1498 1501 1504 1508 1511 1515 1518 1522 1525 1528 1530 1533 1535 1537 1538 1539 1540 1541 1542 1542 1543 1543 1544
1487 1498 1496 1491 1492 1495 1499 1506 1515 1526 1528 1537 1535 1522 1494 1490 1486 1487 1487 1488 1491 1494 1497 1501 1504 1508 1512 1516 1519 1522 1524 1527 1529 1531 1533 1535 1536 1538 1538 1539 1539 1540 1541 1541
1487 1497 1504 1497 1490 1489 1492 1498 1510 1520 1524 1530 1532 1520 1485 1484 1483 1483 1484 1485 1488 1491 1494 1498 1501 1505 1508 1512 1515 1517 1520 1523 1525 1528 1530 1531 1533 1534 1535 1535 1536 1537 1538 1538
1485 1498 1510 1508 1504 1494 1493 1496 1502 1512 1522 1531 1530 1513 1484 1482 1482 1482 1482 1483 1485 1488 1491 1495 1498 1501 1504 1507 1510 1513 1516 1519 1521 1524 1525 1527 1528 1530 1530 1532 1533 1534 1535 1535
1479 1494 1503 1510 1505 1496 1495 1495 1501 1508 1519 1523 1517 1503 1488 1484 1482 1480 1479 1479 1481 1484 1487 1490 1493 1496 1500 1503 1506 1509 1512 1514 1517 1519 1521 1522 1524 1525 1527 1528 1530 1530 1531 1532
1479 1491 1491 1491 1489 1490 1491 1491 1494 1501 1502 1507 1500 1497 1488 1483 1481 1478 1477 1477 1478 1480 1483 1486 1489 1492 1495 1498 1501 1504 1507 1510 1512 1514 1516 1518 1520 1521 1523 1524 1525 1526 1527 1528
1480 1487 1489 1489 1486 1488 1490 1488 1488 1490 1491 1494 1493 1491 1483 1482 1480 1478 1476 1476 1477 1478 1480 1483 1486 1488 1491 1494 1497 1500 1502 1505 1508 1510 1512 1514 1516 1517 1518 1520 1521 1522 1522 1523
1483 1488 1495 1498 1491 1490 1496 1487 1486 1487 1486 1488 1491 1486 1482 1483 1481 1480 1477 1477 1478 1478 1479 1481 1483 1486 1488 1491 1493 1496 1499 1501 1504 1506 1508 1509 1511 1512 1513 1515 1516 1516 1517 1518
1483 1490 1498 1501 1497 1505 1490 1480 1479 1484 1484 1484 1484 1483 1482 1483 1483 1482 1480 1478 1479 1480 1480 1481 1483 1485 1487 1489 1491 1493 1496 1498 1500 1502 1503 1505 1506 1507 1508 1509 1510 1510 1511 1511
1478 1488 1499 1505 1505 1498 1486 1480 1481 1484 1484 1481 1482 1483 1482 1482 1482 1483 1483 1482 1481 1482 1482 1482 1484 1486 1487 1488 1490 1491 1493 1495 1496 1498 1499 1500 1501 1501 1502 1503 1503 1503 1503 1503
1482 1485 1496 1503 1503 1504 1486 1477 1477 1482 1486 1479 1479 1480 1480 1480 1486 1490 1487 1485 1485 1485 1485 1485 1487 1487 1487 1488 1490 1490 1491 1492 1493 1494 1495 1495 1496 1496 1496 1496 1495 1495 1494 1494
1487 1492 1496 1501 1502 1493 1478 1476 1478 1491 1485 1476 1477 1478 1479 1481 1485 1489 1489 1488 1488 1489 1488 1489 1490 1490 1491 1491 1491 1490 1490 1491 1492 1492 1492 1492 1492 1491 1490 1489 1488 1487 1486 1485
1487 1493 1497 1501 1502 1494 1474 1475 1479 1478 1474 1474 1476 1478 1479 1481 1485 1488 1490 1491 1492 1493 1492 1492 1493 1493 1494 1494 1493 1492 1491 1492 1492 1492 1491 1490 1489 1487 1485 1483 1482 1480 1478 1477
1482 1482 1485 1487 1485 1474 1472 1471 1472 1472 1473 1474 1477 1479 1480 1483 1486 1489 1491 1493 1494 1495 1496 1496 1496 1496 1496 1495 1495 1493 1494 1493 1492 1491 1489 1488 1486 1484 1482 1480 1478 1476 1474 1471
1476 1476 1478 1479 1472 1469 1469 1469 1470 1471 1472 1474 1477 1479 1481 1484 1487 1491 1493 1495 1497 1498 1499 1499 1498 1498 1497 1497 1496 1495 1494 1493 1491 1490 1488 1486 1484 1481 1479 1477 1475 1472 1469 1467
1470 1474 1476 1475 1469 1467 1466 1467 1468 1470 1472 1475 1477 1480 1483 1486 1490 1493 1495 1497 1499 1499 1500 1500 1499 1499 1498 1498 1497 1495 1494 1492 1490 1488 1486 1484 1481 1479 1476 1474 1472 1469 1467 1464
1469 1470 1472 1470 1464 1465 1465 1466 1469 1471 1473 1476 1478 1482 1486 1489 1492 1495 1497 1499 1500 1500 1500 1500 1500 1499 1499 1497 1496 1494 1493 1491 1488 1486 1484 1481 1479 1476 1473 1470 1467 1464 1462 1459